| time (UTC) | temp F | wind direction | speed MPH | gust MPH | rain 1hr in | rain 24hr in | rain mn in | humidity % | barometer mb |
| 20260507010042 | 55 | 117 | 2.0 | 8.0 | 0.00 | 0.16 | 0.16 | 96 | 1009.1 |
| 20260507004535 | 55 | 160 | 2.0 | 8.0 | 0.00 | 0.16 | 0.16 | 96 | 1009.0 |
| 20260507003033 | 55 | 210 | 2.0 | 7.0 | 0.00 | 0.16 | 0.16 | 96 | 1008.9 |
| 20260507001516 | 55 | 188 | 3.0 | 8.0 | 0.00 | 0.16 | 0.16 | 96 | 1008.9 |
| 20260507000013 | 55 | 197 | 2.0 | 8.0 | 0.01 | 0.16 | 0.16 | 96 | 1009.0 |
| 20260506234607 | 55 | 206 | 2.0 | 10.0 | 0.02 | 0.16 | 0.16 | 96 | 1008.9 |
| 20260506233102 | 55 | 252 | 4.0 | 14.0 | 0.05 | 0.16 | 0.16 | 96 | 1009.0 |
| 20260506231538 | 55 | 149 | 4.0 | 13.0 | 0.09 | 0.16 | 0.16 | 96 | 1009.0 |
| 20260506230042 | 54 | 154 | 1.0 | 7.0 | 0.12 | 0.15 | 0.15 | 96 | 1008.9 |
| 20260506224517 | 54 | 143 | 2.0 | 7.0 | 0.12 | 0.14 | 0.14 | 96 | 1008.9 |
| 20260506223014 | 54 | 155 | 3.0 | 8.0 | 0.09 | 0.11 | 0.11 | 95 | 1009.0 |
| 20260506221554 | 54 | 189 | 3.0 | 8.0 | 0.06 | 0.07 | 0.07 | 95 | 1009.0 |
| 20260506220053 | 55 | 80 | 1.0 | 8.0 | 0.02 | 0.03 | 0.03 | 95 | 1009.5 |
| 20260506214532 | 55 | 203 | 1.0 | 9.0 | 0.01 | 0.02 | 0.02 | 95 | 1009.4 |
| 20260506213032 | 55 | 168 | 2.0 | 6.0 | 0.01 | 0.02 | 0.02 | 94 | 1009.6 |
| 20260506211515 | 55 | 174 | 2.0 | 7.0 | 0.00 | 0.01 | 0.01 | 93 | 1009.7 |
| 20260506210015 | 55 | 169 | 2.0 | 7.0 | 0.00 | 0.01 | 0.01 | 93 | 1009.8 |
| 20260506204511 | 56 | 78 | 2.0 | 11.0 | 0.01 | 0.01 | 0.01 | 92 | 1009.9 |
| 20260506203013 | 56 | 121 | 2.0 | 9.0 | 0.01 | 0.01 | 0.01 | 91 | 1010.1 |
| 20260506201512 | 57 | 156 | 4.0 | 10.0 | 0.01 | 0.01 | 0.01 | 91 | 1010.1 |
| 20260506200011 | 57 | 213 | 4.0 | 17.0 | 0.01 | 0.01 | 0.01 | 91 | 1010.2 |
| 20260506194507 | 58 | 155 | 2.0 | 15.0 | 0.00 | 0.00 | 0.00 | 89 | 1010.3 |
| 20260506193006 | 59 | 110 | 4.0 | 11.0 | 0.00 | 0.00 | 0.00 | 86 | 1010.4 |
| 20260506191548 | 60 | 151 | 6.0 | 12.0 | 0.00 | 0.00 | 0.00 | 83 | 1010.4 |
| 20260506190045 | 60 | 150 | 4.0 | 16.0 | 0.00 | 0.00 | 0.00 | 82 | 1010.4 |
| 20260506184528 | 61 | 174 | 4.0 | 12.0 | 0.00 | 0.00 | 0.00 | 82 | 1010.5 |
| 20260506183029 | 61 | 59 | 6.0 | 17.0 | 0.00 | 0.00 | 0.00 | 81 | 1010.7 |
| 20260506181509 | 61 | 128 | 3.0 | 13.0 | 0.00 | 0.00 | 0.00 | 81 | 1010.9 |
| 20260506180008 | 62 | 168 | 4.0 | 11.0 | 0.00 | 0.00 | 0.00 | 80 | 1011.0 |
| 20260506174601 | 62 | 125 | 4.0 | 14.0 | 0.00 | 0.00 | 0.00 | 79 | 1011.3 |
| 20260506173125 | 63 | 166 | 3.0 | 14.0 | 0.00 | 0.00 | 0.00 | 78 | 1011.5 |
| 20260506171553 | 64 | 212 | 5.0 | 14.0 | 0.00 | 0.00 | 0.00 | 77 | 1011.6 |
| 20260506170051 | 64 | 85 | 6.0 | 17.0 | 0.00 | 0.00 | 0.00 | 77 | 1011.6 |
| 20260506164550 | 64 | 198 | 5.0 | 16.0 | 0.00 | 0.00 | 0.00 | 78 | 1011.8 |
| 20260506163053 | 63 | 197 | 5.0 | 11.0 | 0.00 | 0.00 | 0.00 | 78 | 1012.1 |
| 20260506161548 | 64 | 230 | 4.0 | 13.0 | 0.00 | 0.00 | 0.00 | 77 | 1012.1 |
| 20260506160047 | 65 | 167 | 1.0 | 15.0 | 0.00 | 0.00 | 0.00 | 76 | 1012.3 |
| 20260506154530 | 64 | 86 | 5.0 | 16.0 | 0.00 | 0.00 | 0.00 | 76 | 1012.5 |
| 20260506153040 | 64 | 206 | 6.0 | 16.0 | 0.00 | 0.00 | 0.00 | 77 | 1012.4 |
| 20260506151526 | 64 | 153 | 4.0 | 18.0 | 0.00 | 0.00 | 0.00 | 77 | 1012.5 |
| 20260506150025 | 64 | 221 | 6.0 | 15.0 | 0.00 | 0.00 | 0.00 | 78 | 1012.8 |
| 20260506144537 | 63 | 217 | 4.0 | 10.0 | 0.00 | 0.00 | 0.00 | 78 | 1012.5 |
| 20260506143024 | 63 | 209 | 4.0 | 12.0 | 0.00 | 0.00 | 0.00 | 79 | 1012.6 |
| 20260506141526 | 63 | 201 | 3.0 | 14.0 | 0.00 | 0.00 | 0.00 | 79 | 1012.7 |
| 20260506140040 | 63 | 212 | 4.0 | 14.0 | 0.00 | 0.00 | 0.00 | 78 | 1012.4 |
| 20260506134530 | 63 | 195 | 7.0 | 14.0 | 0.00 | 0.00 | 0.00 | 79 | 1012.7 |
| 20260506133020 | 62 | 84 | 6.0 | 18.0 | 0.00 | 0.00 | 0.00 | 81 | 1013.0 |
| 20260506131523 | 61 | 155 | 5.0 | 14.0 | 0.00 | 0.00 | 0.00 | 82 | 1013.0 |
| 20260506130016 | 60 | 210 | 3.0 | 12.0 | 0.00 | 0.00 | 0.00 | 84 | 1013.0 |
| 20260506124513 | 60 | 214 | 7.0 | 15.0 | 0.00 | 0.00 | 0.00 | 85 | 1013.0 |
| 20260506123014 | 59 | 139 | 5.0 | 13.0 | 0.00 | 0.00 | 0.00 | 86 | 1013.0 |
| 20260506121554 | 59 | 176 | 5.0 | 13.0 | 0.00 | 0.00 | 0.00 | 88 | 1013.0 |
| 20260506120046 | 57 | 179 | 5.0 | 13.0 | 0.00 | 0.00 | 0.00 | 89 | 1013.1 |
| 20260506114533 | 57 | 132 | 4.0 | 14.0 | 0.00 | 0.00 | 0.00 | 89 | 1013.4 |
| 20260506113036 | 57 | 63 | 4.0 | 14.0 | 0.00 | 0.00 | 0.00 | 90 | 1013.3 |
| 20260506111533 | 56 | 180 | 4.0 | 8.0 | 0.00 | 0.00 | 0.00 | 90 | 1013.5 |
| 20260506110040 | 56 | 177 | 3.0 | 10.0 | 0.00 | 0.00 | 0.00 | 90 | 1013.4 |
| 20260506104530 | 57 | 129 | 2.0 | 13.0 | 0.00 | 0.00 | 0.00 | 91 | 1013.2 |
| 20260506103029 | 56 | 194 | 5.0 | 12.0 | 0.00 | 0.00 | 0.00 | 91 | 1013.2 |
| 20260506101533 | 56 | 152 | 3.0 | 11.0 | 0.00 | 0.00 | 0.00 | 91 | 1013.1 |
| 20260506100027 | 56 | 148 | 2.0 | 11.0 | 0.00 | 0.00 | 0.00 | 91 | 1013.0 |
| 20260506094527 | 56 | 77 | 4.0 | 11.0 | 0.00 | 0.00 | 0.00 | 91 | 1012.9 |
| 20260506093004 | 56 | 210 | 4.0 | 8.0 | 0.00 | 0.00 | 0.00 | 91 | 1013.1 |
| 20260506091503 | 57 | 184 | 3.0 | 9.0 | 0.00 | 0.00 | 0.00 | 91 | 1013.1 |
| 20260506090043 | 57 | 172 | 3.0 | 10.0 | 0.00 | 0.00 | 0.00 | 91 | 1013.2 |
| 20260506084542 | 57 | 159 | 2.0 | 9.0 | 0.00 | 0.00 | 0.00 | 90 | 1013.3 |
| 20260506083030 | 57 | 214 | 1.0 | 10.0 | 0.00 | 0.00 | 0.00 | 90 | 1013.5 |
| 20260506081523 | 57 | 223 | 1.0 | 7.0 | 0.00 | 0.00 | 0.00 | 90 | 1013.5 |
| 20260506073008 | 57 | 165 | 3.0 | 9.0 | 0.00 | 0.00 | 0.00 | 90 | 1013.4 |
| 20260506071506 | 56 | 193 | 3.0 | 7.0 | 0.00 | 0.00 | 0.00 | 90 | 1013.4 |
| 20260506061558 | 57 | 131 | 3.0 | 10.0 | 0.00 | 0.00 | 0.00 | 87 | 1013.3 |
| 20260506044533 | 57 | 178 | 3.0 | 9.0 | 0.00 | 0.00 | 0.00 | 86 | 1014.0 |
| 20260506043023 | 57 | 211 | 7.0 | 14.0 | 0.00 | 0.00 | 0.00 | 86 | 1014.1 |
| 20260506041522 | 56 | 203 | 3.0 | 8.0 | 0.00 | 0.00 | 0.00 | 87 | 1014.0 |
| 20260506040021 | 55 | 101 | 1.0 | 6.0 | 0.00 | 0.00 | 0.00 | 87 | 1014.0 |
| 20260506034522 | 55 | 108 | 0.0 | 5.0 | 0.00 | 0.00 | 0.00 | 86 | 1014.0 |
| 20260506033008 | 55 | 102 | 2.0 | 5.0 | 0.00 | 0.00 | 0.00 | 85 | 1013.9 |
| 20260506031511 | 56 | 172 | 2.0 | 7.0 | 0.00 | 0.00 | 0.00 | 83 | 1013.7 |
| 20260506030007 | 56 | 82 | 1.0 | 10.0 | 0.00 | 0.00 | 0.00 | 82 | 1013.7 |
| 20260506024508 | 57 | 140 | 0.0 | 9.0 | 0.00 | 0.00 | 0.00 | 80 | 1013.7 |
| 20260506023005 | 58 | 91 | 4.0 | 10.0 | 0.00 | 0.00 | 0.00 | 80 | 1013.6 |
| 20260506021506 | 57 | 191 | 3.0 | 8.0 | 0.00 | 0.00 | 0.00 | 80 | 1013.7 |
| 20260506020005 | 58 | 235 | 2.0 | 6.0 | 0.00 | 0.00 | 0.00 | 79 | 1013.6 |
| 20260506014504 | 58 | 72 | 1.0 | 8.0 | 0.00 | 0.00 | 0.00 | 78 | 1013.6 |
| 20260506013050 | 58 | 191 | 2.0 | 13.0 | 0.00 | 0.00 | 0.00 | 78 | 1013.6 |
| 20260506011545 | 58 | 145 | 3.0 | 8.0 | 0.00 | 0.00 | 0.00 | 78 | 1013.4 |